Location: Newark
(45.4422°N, 16.2769°E)
Time: 19:46:17
(UTC+00:00)

Tiros 1 despin weight - Pass Details

Date: 23 December 2019
Orbit: 593 x 643 km, 48.2° (Epoch: 18 January)

Event Time Altitude Azimuth Distance (km) Brightness Sun altitude
Rises 05:02:46 0° 288° (WNW) 2,890 - -14.9°
Reaches altitude 10° 05:05:16 10° 279° (W) 1,972 - -14.5°
Exits shadow 05:07:01 20° 264° (W) 1,413 ? -14.2°
Maximum altitude 05:09:17 32° 216° (SW) 1,046 ? -13.9°
Drops below altitude 10° 05:13:14 10° 153° (SSE) 1,937 ? -13.2°
Sets 05:15:41 0° 144° (SE) 2,830 ? -12.8°
